This is the latest recevied weather packets stored in our database for station/object JO1YDG-13. If no packets are shown the sender has not sent any weather packets the latest 1 day(s).
| Time | Temp. | Humidity | Pressure | Rain* | Wind** | Luminosity | Snow |
|---|---|---|---|---|---|---|---|
| 1778015285 | 11.11° C | 77% | 995.6 hPa | 0 mm | 0.45 m/s, 147° | - | - |
| 1778014984 | 11.11° C | 79% | 995.6 hPa | 0 mm | 0.45 m/s, 169° | - | - |
| 1778014683 | 10.56° C | 81% | 995.6 hPa | 0 mm | 0.45 m/s, 162° | - | - |
| 1778014383 | 10.56° C | 81% | 995.6 hPa | 0 mm | 0.89 m/s, 112° | - | - |
| 1778014085 | 10.56° C | 80% | 995.5 hPa | 0 mm | 0 m/s | - | - |
| 1778013784 | 10.56° C | 79% | 995.5 hPa | 0 mm | 0 m/s | - | - |
| 1778013484 | 10.56° C | 80% | 995.6 hPa | 0 mm | 0 m/s | - | - |
| 1778013183 | 10.56° C | 80% | 995.6 hPa | 0 mm | 0.45 m/s, 326° | - | - |
| 1778012883 | 10° C | 80% | 995.6 hPa | 0 mm | 0 m/s | - | - |
| 1778012585 | 10° C | 80% | 995.6 hPa | 0 mm | 0 m/s | - | - |
| 1778012285 | 10° C | 81% | 995.6 hPa | 0 mm | 0 m/s | - | - |
| 1778011984 | 10° C | 81% | 995.6 hPa | 0 mm | 0.89 m/s, 270° | - | - |
| 1778011684 | 10° C | 82% | 995.6 hPa | 0 mm | 0 m/s | - | - |
| 1778011384 | 10° C | 82% | 995.6 hPa | 0 mm | 0.45 m/s, 270° | - | - |
| 1778011084 | 10° C | 83% | 995.3 hPa | 0 mm | 0 m/s | - | - |
| 1778010784 | 10° C | 82% | 995.3 hPa | 0 mm | 0.89 m/s, 193° | - | - |
| 1778010484 | 10° C | 82% | 995.5 hPa | 0 mm | 0.89 m/s, 270° | - | - |
| 1778010184 | 10° C | 82% | 995.5 hPa | 0 mm | 0.45 m/s, 257° | - | - |
| 1778009884 | 10° C | 81% | 995.2 hPa | 0 mm | 0.45 m/s, 303° | - | - |
| 1778009584 | 10° C | 81% | 995.2 hPa | 0 mm | 0.45 m/s, 259° | - | - |
| 1778009284 | 10° C | 81% | 995.2 hPa | 0 mm | 0.89 m/s, 260° | - | - |
| 1778008984 | 10° C | 81% | 995.3 hPa | 0 mm | 0.89 m/s, 248° | - | - |
| 1778008684 | 10° C | 82% | 995.3 hPa | 0 mm | 1.34 m/s, 270° | - | - |
| 1778008383 | 10° C | 83% | 995.2 hPa | 0 mm | 0.89 m/s, 270° | - | - |
| 1778008083 | 10° C | 83% | 995.2 hPa | 0 mm | 0.89 m/s, 270° | - | - |
* Rain latest hour (hover to see other rain measurements)
** Current wind speed in m/s (hover to see current wind gust speed)